Weather History for KWVI - February, 2014

Change the Weather History Date:

Friday, February 7, 2014

  Actual Average Record
Temperature  
Mean Temperature 53 °F 51 °F  
Max Temperature 55 °F 62 °F 77 °F (1987)
Min Temperature 50 °F 41 °F 32 °F (2001)
Degree Days  
Heating Degree Days 12    
Month to date heating degree days 118  
Since 1 July heating degree days 1540  
Cooling Degree Days 0    
Month to date cooling degree days 0  
Year to date cooling degree days 0  
Growing Degree Days 2 (Base 50)    
Moisture  
Dew Point 50 °F    
Average Humidity 93    
Maximum Humidity 100    
Minimum Humidity 86    
Precipitation  
Precipitation 0.42 in - 1.91 in (1999)
Month to date precipitation 1.23  
Year to date precipitation 1.28  
Since 1 July precipitation 2.35  
Sea Level Pressure  
Sea Level Pressure 30.10 in    
Wind  
Wind Speed 3 mph (South)    
Max Wind Speed 16 mph    
Max Gust Speed 44 mph    
Visibility 8 miles    
Events Rain    
T = Trace of Precipitation, MM = Missing Value Source: NWS Daily Summary

Daily Weather History Graph

Daily Weather History Graph

Search for Another Location

Airport or City:

Trip Planner

Search our weather history database for the weather conditions in past years. The results will help you decide how hot, cold, wet, or windy it might be!

Date:

Astronomy

Feb. 07, 2014 Rise Set
Actual Time 7:04 AM PST 5:39 PM PST
Civil Twilight 6:37 AM PST 6:06 PM PST
Nautical Twilight 6:06 AM PST 6:36 PM PST
Astronomical Twilight 5:36 AM PST 7:07 PM PST
Moon 11:55 AM PST (2/7) 1:23 AM PST (2/7)
Length of Visible Light 11h 28m
Length of Day
10h 34m
First Quarter, 60% of the Moon is Illuminated
Feb 7
First Quarter
Feb 14
Full
Feb 22
Last Quarter
Mar 1
New
Mar 8
First Quarter

Hourly Weather History & Observations

Time (PST) Temp. Dew Point Humidity Pressure Visibility Wind Dir Wind Speed Gust Speed Precip Events Conditions
12:31 AM 51.8 °F 48.2 °F 88% 30.04 in 10.0 mi Calm Calm - N/A   Overcast
12:53 AM 50.0 °F 48.0 °F 93% 30.04 in 10.0 mi Calm Calm - N/A   Overcast
1:29 AM 51.8 °F 46.4 °F 82% 30.04 in 10.0 mi Calm Calm - N/A   Overcast
1:53 AM 50.0 °F 46.9 °F 89% 30.04 in 10.0 mi Calm Calm - N/A   Overcast
2:22 AM 50.0 °F 46.4 °F 87% 30.06 in 10.0 mi Calm Calm - N/A   Overcast
2:53 AM 50.0 °F 48.0 °F 93% 30.07 in 10.0 mi Calm Calm - N/A   Overcast
3:12 AM 50.0 °F 48.2 °F 94% 30.07 in 8.0 mi Calm Calm - N/A   Overcast
3:43 AM 50.0 °F 48.2 °F 94% 30.08 in 2.5 mi Calm Calm - 0.03 in Rain Rain
3:53 AM 50.0 °F 48.0 °F 93% 30.08 in 2.5 mi NNW 3.5 mph - 0.06 in Rain Heavy Rain
3:57 AM 50.0 °F 48.2 °F 94% 30.07 in 3.0 mi Calm Calm - 0.00 in Rain Light Rain
4:04 AM 51.8 °F 48.2 °F 88% 30.07 in 9.0 mi Calm Calm - 0.00 in Rain Light Rain
4:53 AM 51.1 °F 48.9 °F 92% 30.08 in 8.0 mi Calm Calm - 0.00 in   Overcast
5:18 AM 50.0 °F 48.2 °F 94% 30.08 in 8.0 mi Calm Calm - N/A   Mostly Cloudy
5:53 AM 50.0 °F 48.9 °F 96% 30.08 in 7.0 mi ENE 3.5 mph - N/A   Overcast
6:24 AM 50.0 °F 48.2 °F 94% 30.06 in 10.0 mi Calm Calm - N/A   Overcast
6:53 AM 51.1 °F 48.0 °F 89% 30.07 in 10.0 mi Calm Calm - N/A   Overcast
7:13 AM 51.8 °F 48.2 °F 88% 30.08 in 8.0 mi Calm Calm - N/A   Overcast
7:40 AM 51.8 °F 48.2 °F 88% 30.08 in 8.0 mi Calm Calm - N/A   Overcast
7:53 AM 51.1 °F 50.0 °F 96% 30.08 in 9.0 mi Calm Calm - N/A   Overcast
8:53 AM 52.0 °F 48.0 °F 86% 30.11 in 10.0 mi SSE 4.6 mph - N/A   Overcast
9:53 AM 52.0 °F 48.0 °F 86% 30.15 in 7.0 mi Calm Calm - N/A   Overcast
10:09 AM 51.8 °F 48.2 °F 88% 30.15 in 7.0 mi Calm Calm - 0.01 in Rain Light Rain
10:53 AM 53.1 °F 48.9 °F 86% 30.14 in 10.0 mi NNE 5.8 mph - 0.01 in Rain Light Rain
11:02 AM 53.6 °F 50.0 °F 88% 30.14 in 10.0 mi Calm Calm - 0.00 in Rain Light Rain
11:53 AM 54.0 °F 50.0 °F 86% 30.12 in 10.0 mi Calm Calm - 0.01 in   Overcast
12:31 PM 53.6 °F 48.2 °F 82% 30.12 in 10.0 mi SSW 3.5 mph - 0.00 in   Overcast
12:53 PM 53.1 °F 48.9 °F 86% 30.12 in 10.0 mi SSW 6.9 mph - 0.00 in Rain Light Rain
1:53 PM 54.0 °F 54.0 °F 100% 30.11 in 10.0 mi South 4.6 mph - 0.03 in Rain Light Rain
2:04 PM 53.6 °F 53.6 °F 100% 30.10 in 10.0 mi South 11.5 mph 17.3 mph 0.00 in Rain Light Rain
2:12 PM 53.6 °F 53.6 °F 100% 30.09 in 10.0 mi South 11.5 mph 19.6 mph 0.00 in Rain Light Rain
2:32 PM 55.4 °F 53.6 °F 94% 30.07 in 10.0 mi South 10.4 mph - 0.00 in Rain Light Rain
2:53 PM 55.0 °F 53.1 °F 93% 30.08 in 10.0 mi South 11.5 mph - 0.00 in Rain Light Rain
3:53 PM 54.0 °F 53.1 °F 97% 30.09 in 6.0 mi SSW 8.1 mph - 0.02 in Rain Rain
4:16 PM 53.6 °F 53.6 °F 100% 30.08 in 6.0 mi South 13.8 mph 20.7 mph 0.03 in Rain Rain
4:53 PM 53.1 °F 53.1 °F 100% 30.08 in 10.0 mi SSW 8.1 mph - 0.05 in Rain Light Rain
5:23 PM 53.6 °F 53.6 °F 100% 30.07 in 8.0 mi South 4.6 mph - 0.02 in Rain Light Rain
5:53 PM 53.1 °F 53.1 °F 100% 30.08 in 6.0 mi Calm Calm - 0.04 in Rain Light Rain
6:05 PM 53.6 °F 53.6 °F 100% 30.08 in 6.0 mi SW 4.6 mph - 0.00 in Rain Light Rain
6:53 PM 52.0 °F 52.0 °F 100% 30.10 in 6.0 mi Calm Calm - 0.03 in Rain Light Rain
7:39 PM 51.8 °F 51.8 °F 100% 30.11 in 6.0 mi West 4.6 mph - 0.02 in Rain Light Rain
7:53 PM 52.0 °F 52.0 °F 100% 30.12 in 4.0 mi West 4.6 mph - 0.02 in Rain Light Rain
8:53 PM 52.0 °F 52.0 °F 100% 30.13 in 5.0 mi WNW 3.5 mph - 0.04 in Rain Light Rain
9:30 PM 51.8 °F 51.8 °F 100% 30.14 in 3.0 mi Calm Calm - 0.03 in Rain Rain
9:53 PM 52.0 °F 52.0 °F 100% 30.14 in 3.0 mi SSE 3.5 mph - 0.05 in Rain Light Rain
10:04 PM 51.8 °F 51.8 °F 100% 30.15 in 3.0 mi SSE 4.6 mph - 0.01 in Rain Light Rain
10:47 PM 51.8 °F - N/A% 30.15 in 3.0 mi SSE 3.5 mph - 0.04 in Rain Light Rain
10:53 PM 52.0 °F - N/A% 30.14 in 2.5 mi SSE 4.6 mph - 0.05 in Rain Rain
11:09 PM 51.8 °F 51.8 °F 100% 30.14 in 3.0 mi SE 4.6 mph - 0.01 in Rain Light Rain
11:37 PM 51.8 °F 51.8 °F 100% 30.15 in 10.0 mi Calm Calm - 0.01 in Rain Light Rain
11:53 PM 52.0 °F 52.0 °F 100% 30.14 in 10.0 mi Calm Calm - 0.01 in   Overcast